Showing default

FLOCK 4G 12, 62625

Orbit data source: Space-Track

FLOCK 4G 12, 62625 is a payload satellite owned by Planet (US) in SSO that was launched on Tue, 14 Jan 2025 UTC via an FALCON 9 launch vehicle from the Air Force Western Test Range (AFWTR). Payload-class satellites include a variety of spacecraft equipped with specific instruments for various scientific and technological missions. These include communications satellites like Starlink; space stations such as the ISS; scientific satellites like the Hubble; Earth observation satellites from companies like Planet Labs, Umbra, and HawkEye 360; GPS; miniature CubeSats for education and research; and military/defense satellites.

Loading next visibility...
Identifier
62625, 2025-009S
Orbit
SSO
Country
Flag of USUS
Related business
Manufacturer
Planet
Mission
Operational Commercial Imaging
Bus & Motor
CUBESAT 3U, Unknown motor
Mass
5.7 kg wet, 5.7 kg dry
Launch date (UTC)
2025-01-14 (1 year ago)
Launch vehicle
FALCON 9
Launch site
Air Force Western Test Range (AFWTR)
Object type
Payload
Rocket body
Debris
Shape & HBR
Box + 2 Pan, 1.0 m
Radar Cross Section
0.072 m², Medium (>0.1 m² and < 1m²)

Expand to show TLE details & history
Last TLE update: 10 hours ago

TLE from 10 hours ago
0 FLOCK 4G 12
1 62625U 25009S   26126.49075292  .00009782  00000-0  35692-3 0  9996
2 62625  97.4018 208.5625 0005842 101.8519 258.3377 15.28332137 72531
Epoch: 2026-05-06T11:46Z
TLE epoch observation values (Epoch: 2026-05-06T11:46:41.052Z)
Latitude
0.00008°
Longitude
167.54095°
Altitude
484.712 km
Speed
7.622 km/s
True Right ascension
13h 54m 14s
True Declination
0° 00' 00"
Sunlit
Object was in full shadow at epoch
Visualization orbit readout
Latitude
Unknown
Longitude
Unknown
Altitude
Unknown
Speed
Unknown
Apparent Right ascension
Unknown
Apparent Declination
Unknown
Sunlit
N/A
Visualization observer readout
Local Sidereal Time
06:05:31
Azimuth
Unknown
Elevation
Unknown
Doppler factor
Unknown
Orbital elements
Apogee altitude
481.758 km
Perigee altitude
473.747 km
Semi-major axis
6,855.889 km
Eccentricity
0.00058
Inclination
97.4018°
RAAN
208.5625°
Arg. of periapsis
101.8519°
True anomaly
258.27215°
Mean anomaly
258.3377°
Eccentric anomaly
258.30492°
Mean motion
3.82338 °/min
Orbital period
94.16 mins
BSTAR
0.00035692
Loading maneuver chart data...
Computing Atmospheric mass density...
Loading historical data...
Loading historical data...
Loading historical data...
Loading historical data...
Loading historical data...
Loading historical data...
Loading historical data...

Documentation

Showing up to 5 results
|